China Lake, CA

12:27 PM PDT on May 28, 2017 (GMT -0700)
China Lake NAWS

Weather History for KNID - January, 2014

Change the Weather History Date:

Tuesday, January 7, 2014

  Actual Average Record
Temperature  
Mean Temperature 44 °F -  
Max Temperature 57 °F 56 °F 72 °F (2003)
Min Temperature 30 °F 31 °F 19 °F (1998)
Degree Days  
Heating Degree Days 22    
Moisture  
Dew Point 7 °F    
Average Humidity 26    
Maximum Humidity 37    
Minimum Humidity 14    
Precipitation  
Precipitation 0.00 in - - ()
Sea Level Pressure  
Sea Level Pressure 30.15 in    
Wind  
Wind Speed 4 mph (SSW)    
Max Wind Speed 9 mph    
Max Gust Speed -    
Visibility 10 miles    
Events      
Averages and records for this station are not official NWS values.
T = Trace of Precipitation, MM = Missing Value Source: NWS Daily Summary

Daily Weather History Graph

Daily Weather History Graph

Search for Another Location

Airport or City:

Trip Planner

Search our weather history database for the weather conditions in past years. The results will help you decide how hot, cold, wet, or windy it might be!

Date:

Astronomy

Jan. 07, 2014 Rise Set
Actual Time 7:01 AM PST 4:53 PM PST
Civil Twilight 6:32 AM PST 5:21 PM PST
Nautical Twilight 6:01 AM PST 5:53 PM PST
Astronomical Twilight 5:30 AM PST 6:24 PM PST
Moon 11:07 AM PST (1/7) No Moon Set
Length of Visible Light 10h 48m
Length of Day
9h 52m
Waxing Crescent, 46% of the Moon is Illuminated
Jan 7
Waxing Crescent
Jan 7
First Quarter
Jan 15
Full
Jan 23
Last Quarter
Jan 30
New

Hourly Weather History & Observations

Time (PST) Temp. Windchill Dew Point Humidity Pressure Visibility Wind Dir Wind Speed Gust Speed Precip Events Conditions
12:56 AM 34.0 °F 28.0 °F 5.0 °F 30% 30.21 in - South 6.9 mph - N/A   Clear
1:56 AM 34.0 °F 31.0 °F 6.1 °F 31% 30.21 in - North 3.5 mph - N/A   Clear
2:56 AM 34.0 °F 31.0 °F 6.1 °F 31% 30.19 in - SE 3.5 mph - N/A   Clear
3:56 AM 35.1 °F - 7.0 °F 31% 30.19 in - North - - N/A   Clear
4:56 AM 34.0 °F 29.8 °F 7.0 °F 32% 30.20 in - SW 4.6 mph - N/A   Clear
5:56 AM 35.1 °F - 8.1 °F 33% 30.19 in 10.0 mi Calm Calm - N/A   Mostly Cloudy
6:56 AM 32.0 °F 26.4 °F 8.1 °F 37% 30.20 in 10.0 mi NW 5.8 mph - N/A   Mostly Cloudy
7:56 AM 32.0 °F - 6.1 °F 34% 30.22 in 10.0 mi Calm Calm - N/A   Mostly Cloudy
8:56 AM 41.0 °F 39.0 °F 7.0 °F 25% 30.21 in 10.0 mi SSW 3.5 mph - N/A   Mostly Cloudy
9:56 AM 45.0 °F 42.6 °F 8.1 °F 22% 30.24 in 10.0 mi North 4.6 mph - N/A   Mostly Cloudy
10:56 AM 48.9 °F - 6.1 °F 18% 30.20 in 10.0 mi Calm Calm - N/A   Mostly Cloudy
11:56 AM 52.0 °F - 5.0 °F 15% 30.16 in 10.0 mi Calm Calm - N/A   Mostly Cloudy
12:56 PM 55.0 °F - 7.0 °F 15% 30.12 in 10.0 mi South 3.5 mph - N/A   Overcast
1:56 PM 57.0 °F - 7.0 °F 14% 30.09 in 10.0 mi Calm Calm - N/A   Overcast
2:56 PM 55.9 °F - 8.1 °F 15% 30.10 in 10.0 mi NNE 5.8 mph - N/A   Overcast
3:56 PM 55.0 °F - 8.1 °F 15% 30.10 in 10.0 mi Calm Calm - N/A   Overcast
4:56 PM 50.0 °F - 10.0 °F 20% 30.10 in 10.0 mi ENE 3.5 mph - N/A   Overcast
5:56 PM 46.0 °F - 9.0 °F 22% 30.10 in 10.0 mi Calm Calm - N/A   Mostly Cloudy
6:56 PM 42.1 °F 37.1 °F 9.0 °F 26% 30.10 in 10.0 mi South 8.1 mph - N/A   Mostly Cloudy
7:56 PM 37.0 °F 33.3 °F 8.1 °F 30% 30.12 in 10.0 mi WNW 4.6 mph - N/A   Mostly Cloudy
8:56 PM 35.1 °F 28.6 °F 6.1 °F 30% 30.12 in 10.0 mi SW 8.1 mph - N/A   Partly Cloudy
9:56 PM 32.0 °F 24.8 °F 6.1 °F 34% 30.13 in 10.0 mi SSW 8.1 mph - N/A   Clear
10:56 PM 30.9 °F 22.8 °F 6.1 °F 35% 30.12 in 10.0 mi South 9.2 mph - N/A   Clear
11:56 PM 30.9 °F - 6.1 °F 35% 30.10 in 10.0 mi Calm Calm - N/A   Clear